Regional Weather Roundup
Issued by NWS Jackson, KY

Home | Current Version | Previous Version | Text Only | Print | Product List | Glossary On
Versions: 1 2 3 4 5 6 7 8 9 10 11 12 13 14 15 16 17 18 19 20 21 22 23 24 25 26 27 28 29 30 31 32 33 34 35 36 37 38 39 40 41 42 43 44 45 46 47 48 49 50
000
ASUS43 KJKL 310019
RWRJKL

EAST KENTUCKY HOURLY WEATHER ROUNDUP
NATIONAL WEATHER SERVICE JACKSON KY
800 PM EDT WED JUL 30 2014

NOTE: "FAIR" INDICATES FEW OR NO CLOUDS BELOW 12,000 FEET WITH
NO SIGNIFICANT WEATHER AND/OR OBSTRUCTIONS TO VISIBILITY.

* THESE REPORTS ARE NOT UNDER NWS QUALITY CONTROL AND MAY NOT
  REPORT WEATHER SUCH AS PRECIPITATION AND FOG.

KYZ079-080-083-085-087-088-110-112-115-119-120-310100
...EASTERN KENTUCKY...

CITY           SKY/WX    TMP DP  RH WIND       PRES   REMARKS
JACKSON        CLEAR     72  60  66 CALM      30.09R
6HR MIN TEMP:  72; 6HR MAX TEMP:  77;

LONDON         PTCLDY    76  57  51 W6        30.09S
6HR MIN TEMP:  74; 6HR MAX TEMP:  79;

SOMERSET*      CLEAR     72  57  60 W6        30.09R
MONTICELLO*    MOCLDY    73  64  73 SW3       30.10S
6HR MIN TEMP:  73; 6HR MAX TEMP:  82;

MIDDLESBORO*   PTCLDY    73  60  64 NW3       30.10R
6HR MIN TEMP:  73; 6HR MAX TEMP:  79;

HARLAN APT*    CLEAR     70  59  68 MISG      30.10S
HAZARD APT*    CLEAR     73  59  60 CALM      30.10
BLACK MTN*       N/A     59  55  88 S2          N/A
PIKEVILLE APT* CLEAR     72  57  60 CALM      30.10R
BIG SANDY*     CLEAR     73  61  65 CALM      30.08S
6HR MIN TEMP:  73; 6HR MAX TEMP:  77;

MOREHEAD APT*    N/A     75  57  53 CALM      30.09R
ASHLAND*       MOCLDY    64  57  77 SE7       30.06S
$$

KYZ035-036-041-042-044-050-067-078-099-310100
...CENTRAL KENTUCKY...

CITY           SKY/WX    TMP DP  RH WIND       PRES   REMARKS
MT STERLING*   CLEAR     73  61  64 CALM      30.08S
FLEMING/MASON* CLOUDY    68  57  68 NE8       30.09R
DANVILLE*      CLEAR     73  57  56 CALM      30.08S
RICHMOND*      CLEAR     73  57  56 CALM      30.08R
LEXINGTON      CLEAR     76  56  49 W6        30.07R
6HR MIN TEMP:  76; 6HR MAX TEMP:  81;

FRANKFORT      CLEAR     75  57  53 SW6       30.05S
6HR MIN TEMP:  75; 6HR MAX TEMP:  80;

$$

KYZ091>093-OHZ055-061-077-WVZ005-015-034-035-042-310100
...SOUTHERN OHIO/WEST VIRGINIA...

CITY           SKY/WX    TMP DP  RH WIND       PRES   REMARKS
COVINGTON      MOCLDY    73  59  61 W13       30.05R
COLUMBUS       PTCLDY    73  60  63 S6        30.02S
DAYTON         PTCLDY    73  59  61 W12       30.04S
WILMINGTON     PTCLDY    67  62  84 S5        30.05S
HUNTINGTON     LGT RAIN  62  62 100 E9        30.08S
CHARLESTON     TSTM      64  61  90 W7        30.11R
PINEVILLE*     CLEAR     67  65  93 MISG      30.16R
BECKLEY        CLEAR     68  52  56 W6        30.13R
BLUEFIELD      CLEAR     69  52  54 NW3       30.16R
$$

VAZ002-007-008-TNZ017-027-036-066-071-310100
...SOUTHWEST VIRGINIA/EAST TENNESSEE...

CITY           SKY/WX    TMP DP  RH WIND       PRES   REMARKS
WISE*          CLEAR     68  54  60 CALM      30.16R
JONESVILLE*    CLEAR     73  61  64 CALM      30.11S
ABINGDON*      CLEAR     71  58  64 N3        30.12R
BRISTOL        MOCLDY    74  52  46 W6        30.09S
KNOXVILLE      CLOUDY    72  57  59 NE5       30.07S
OAK RIDGE      CLOUDY    74  59  59 CALM      30.09S
CROSSVILLE     CLOUDY    70  60  70 W3        30.13R
NASHVILLE      CLOUDY    78  54  43 NW6       30.07S
$$

...KEY TO REMARKS...
VSB - VISIBILITY IN MILES
WCI - WIND CHILL INDEX
HX  - HEAT INDEX

$$


USA.gov is the U.S. government's official web portal to all federal, state and local government web resources and services.